Погода в Антипино

Россия / Тюменская область     57°49′21″N   66°33′35″E
темп.,
°C
ветер,
м/с
пор.,
м/с
влажн.,
%
обл.,
%
осадки,
мм/ч
давл.,
гПа
погр.,
м
16 мая, вс
вс1623:00+21з4125160 0.2 1014322
02:00+18зюз2261100 0.0 101534
05:00+17з366799 0.0 1016116
08:00+22з485118 0.6 1015447
11:00+27зсз473917 0.6 10151391
14:00+30зсз48335 0.0 10152326
17:00+31зсз592730 0.0 10152903
20:00+26зюз234053 0.0 101432
17 мая, пн
пн1723:00+22зюз3104415 0.0 1014169
02:00+20з312426 0.0 1014255
05:00+19зюз4125079 0.0 1014250
08:00+24з594289 0.0 1015466
11:00+30з611281 0.0 10142859
14:00+31з6112291 0.0 10123730
17:00+31з6122213 0.0 10113258
20:00+16с498426 3.0 1013288
18 мая, вт
вт1823:00+16юз388419 3.4 1012167
02:00+16зюз388238 0.0 1012152
05:00+15зюз388036 0.0 1012160
08:00+20сз485981 0.1 1011647
11:00+22сз584753 0.1 10111882
14:00+19с786293 1.2 10141388
17:00+14с6973100 1.3 10171022
20:00+12ссв6116998 0.0 10191249
19 мая, ср
ср1923:00+12с596622 0.1 1021891
02:00+8с39775 0.0 1023296
05:00+8с39774 0.0 1024273
08:00+13ссв46485 0.0 1025762
11:00+16с453527 0.0 10251564
14:00+18с34315 0.0 10241801
17:00+19с34315 0.0 10231956
20:00+16ссв11475 0.0 102311
20 мая, чт
чт2023:00+12ююв115430 0.0 102310
02:00+11юз226089 0.0 102316
05:00+11зюз256255 0.0 102387
08:00+17з47466 0.0 1022419
11:00+23з57338 0.0 10211425
14:00+26зсз682716 0.0 10192102
17:00+26зсз57255 0.0 10182140
20:00+21з36425 0.0 101795